[[{"header":{"parameterUnit":"m.s-1","parameterCategory":1,"la1":30.2991,"la2":30.254,"lo1":-89.0895,"lo2":-89.0444,"dy":0.0017,"dx":0.0017,"nx":28,"ny":28,"refTime":"2026-02-06T03:00:00:Z","depth":0,"parameterNumber":2,"parameterNumberName":"U-component_of_WINDS"},"data":[0,0,0,0,0,0,0,0,0,0,0,0,0,0,0,0,0,0,0,0,0,0,0,0,0,0,0,0,0,0,0,0,0,0,0,0,0,0,0,0,0,0,0,0,0,0,0,0,0,0,0,0,0,0,0,0,0,0,3.48,3.48,0,3.4806,3.4806,3.4806,3.4737,3.4735,3.4733,3.4731,3.474,3.4742,3.4744,0,0,0,0,0,0,0,0,0,0,0,0,0,3.4733,3.4735,3.48,3.48,3.48,3.4806,3.4806,3.4806,3.4737,3.4735,3.4732,3.473,3.474,3.4742,3.4745,0,0,0,0,0,0,0,0,0,0,0,0,0,3.4753,3.4735,3.48,3.4766,3.4763,3.4806,3.4806,3.4806,3.4737,3.4735,3.4732,3.4729,3.4739,3.4742,3.4745,3.4821,0,0,3.4754,3.4755,0,0,0,0,0,0,0,0,3.4752,3.4756,3.4771,3.4769,3.4765,3.4767,3.4786,3.4811,3.4738,3.4747,3.4731,3.4728,3.4752,3.4754,3.4761,3.4821,3.4822,3.4754,3.4756,3.4758,3.4758,0,0,0,0,0,0,0,3.4751,3.4755,3.4802,3.4772,3.4768,3.4752,3.4752,3.479,3.4766,3.4746,3.4741,3.4743,3.475,3.4758,3.4761,3.4822,3.4754,3.4757,3.4759,3.476,3.4947,3.495,0,0,0,0,0,0,3.4753,3.4754,3.4802,3.4803,3.4751,3.4756,3.4755,3.477,3.4765,3.4762,3.4745,3.474,3.4755,3.4757,3.4761,3.485,3.4758,3.476,3.4762,3.4944,3.4947,3.4951,0,0,0,0,0,0,3.4752,3.4758,3.4802,3.4777,3.4781,3.476,3.4777,3.4771,3.478,3.4764,3.476,3.4758,3.4753,3.4757,3.4807,3.485,3.4762,3.4765,3.494,3.4945,3.4949,3.503,0,0,0,0,0,0,3.4751,3.4758,3.4786,3.4778,3.4783,3.4846,3.4779,3.4774,3.4785,3.4778,3.4775,3.4772,3.4751,3.4803,3.481,3.4852,3.4767,3.4936,3.4942,3.4948,3.5023,3.5037,3.5048,0,0,0,0,0,3.4748,3.4809,3.4788,3.4794,3.4817,3.4849,3.4852,3.4825,3.4789,3.4817,3.4807,3.4772,3.4844,3.4808,3.4816,3.486,3.4933,3.494,3.4947,3.5018,3.5034,3.5048,0,0,0,0,0,0,3.4823,3.4807,3.4783,3.4843,3.4848,3.4837,3.4872,3.4843,3.4859,3.4852,3.4818,3.4819,3.4874,3.4872,3.4833,3.4934,3.4882,3.4891,3.4933,3.4949,3.4961,3.4961,3.4769,0,0,0,0,0,3.4846,3.4872,3.4857,3.4911,3.4915,3.4893,3.4906,3.4885,3.4889,3.4891,3.4885,3.4892,3.4916,3.4932,3.4953,3.5023,3.5022,3.5057,3.507,3.508,3.5088,3.5126,3.5142,3.4974,3.4974,3.4974,0,0,3.4894,3.4889,3.4907,3.4926,3.4927,3.4957,3.4895,3.4929,3.4951,3.4897,3.4943,3.494,3.4945,3.5005,3.5031,3.5005,3.5135,3.5089,3.5098,3.51,3.5135,3.5151,3.5165,3.4979,3.4978,3.4977,0,0,3.4997,3.4995,3.504,3.5043,3.5046,3.5031,3.5042,3.5037,3.5032,3.5078,3.5038,3.5065,3.5107,3.5112,3.5121,3.5228,3.5197,3.5236,3.5302,3.5339,3.5352,3.5364,3.5403,3.5418,3.5245,3.5245,3.5245,0,3.5056,3.5098,3.5067,3.5103,3.5114,3.5066,3.5112,3.5117,3.5127,3.5136,3.5106,3.5158,3.5159,3.522,3.5247,3.5255,3.5268,3.5236,3.5353,3.5364,3.5375,3.5412,3.5426,3.5249,3.5249,3.5248,3.5248,0,3.5172,3.5201,3.5238,3.5248,3.5262,3.5304,3.5281,3.5299,3.5278,3.5267,3.5316,3.5315,3.5335,3.5349,3.5328,3.5408,3.5392,3.5358,3.5305,3.5396,3.543,3.5444,3.5256,3.5255,3.5253,3.5252,0,0,3.532,3.5314,3.5328,3.5332,3.5333,3.5356,3.5396,3.5415,3.5433,3.5442,3.5476,3.5513,3.5482,3.5492,3.5472,3.5505,3.5591,3.5467,3.5467,3.5491,3.5681,3.5707,3.5723,3.5571,3.5574,3.5576,3.5681,0,3.542,3.5486,3.5461,3.553,3.5558,3.5515,3.555,3.5555,3.5547,3.557,3.5561,3.5589,3.5546,3.5551,3.5582,3.5574,3.5629,3.5566,3.5603,3.5605,3.5603,3.5741,3.5768,3.5867,3.5694,3.5696,3.5698,0,3.5545,3.5559,3.5631,3.5628,3.5639,3.5671,3.5687,3.571,3.5716,3.5708,3.572,3.5693,3.5734,3.5682,3.5739,3.5697,3.5711,3.571,3.5713,3.5715,3.5657,3.5748,3.5898,3.5913,3.5719,3.5717,3.5716,0,3.5647,3.5684,3.5732,3.5737,3.5735,3.5758,3.5759,3.5762,3.5776,3.5791,3.58,3.5821,3.5832,3.5849,3.583,3.5793,3.589,3.5836,3.5886,3.5886,3.5908,3.5906,3.6062,3.5917,3.5917,3.5916,3.5916,0,3.5761,3.5807,3.5777,3.5807,3.5858,3.5829,3.5881,3.5877,3.588,3.5909,3.5873,3.5902,3.5874,3.5901,3.5886,3.5936,3.5942,3.5937,3.5933,3.594,3.5941,3.5949,3.5941,3.592,3.592,3.5919,3.5918,0,3.5883,3.5864,3.5914,3.5908,3.5908,3.5946,3.5941,3.5969,3.5959,3.5997,3.6004,3.5988,3.6018,3.6,3.6031,3.6021,3.6086,3.6073,3.6084,3.608,3.6131,3.6127,3.6298,3.6319,3.616,3.6161,3.6163,0,3.5956,3.5991,3.5989,3.6005,3.6008,3.6035,3.6049,3.6024,3.604,3.605,3.6078,3.6104,3.6124,3.6174,3.6166,3.619,3.6176,3.6235,3.618,3.6187,3.6178,3.6176,3.618,3.6246,3.6248,3.6249,3.625,0,3.609,3.608,3.6101,3.612,3.6137,3.6151,3.6162,3.6178,3.6153,3.6174,3.6203,3.6219,3.625,3.6277,3.6298,3.63,3.6272,3.6268,3.6281,3.6289,3.6294,3.6293,3.6114,3.6264,3.6263,3.6262,3.6261,3.626,3.619,3.6219,3.6222,3.6248,3.6253,3.6265,3.6291,3.6285,3.6308,3.6331,3.6315,3.6351,3.6358,3.6382,3.6388,3.6417,3.6393,3.6412,3.6417,3.6422,3.6429,3.629,3.6421,3.642,3.642,3.6419,3.6419,0,3.6322,3.6322,3.6346,3.6362,3.6383,3.6354,3.6365,3.6385,3.6416,3.6425,3.6445,3.648,3.6507,3.6502,3.6527,3.6551,3.6539,3.6558,3.6556,3.6558,3.6448,3.6434,3.6568,3.6568,3.6568,3.6568,3.6568,3.6568,3.6393,3.644,3.6431,3.6482,3.6482,3.6516,3.6525,3.6536,3.6543,3.6584,3.6605,3.6602,3.6606,3.6631,3.6655,3.6653,3.6664,3.6689,3.6682,3.658,3.6565,3.6551,3.6538,3.6691,3.6692,3.679,3.6791,3.6791]},{"header":{"parameterUnit":"m.s-1","parameterCategory":1,"la1":30.2991,"la2":30.254,"lo1":-89.0895,"lo2":-89.0444,"dy":0.0017,"dx":0.0017,"nx":28,"ny":28,"refTime":"2026-02-06T03:00:00:Z","depth":0,"parameterNumber":3,"parameterNumberName":"V-component_of_WINDS"},"data":[0,0,0,0,0,0,0,0,0,0,0,0,0,0,0,0,0,0,0,0,0,0,0,0,0,0,0,0,0,0,0,0,0,0,0,0,0,0,0,0,0,0,0,0,0,0,0,0,0,0,0,0,0,0,0,0,0,0,-0.0509,-0.0509,0,-0.0475,-0.0474,-0.0474,-0.0477,-0.0477,-0.0478,-0.0478,-0.0444,-0.0442,-0.0441,0,0,0,0,0,0,0,0,0,0,0,0,0,-0.0578,-0.0577,-0.0509,-0.0509,-0.0508,-0.0475,-0.0474,-0.0474,-0.0477,-0.0477,-0.0478,-0.0478,-0.0444,-0.0442,-0.0441,0,0,0,0,0,0,0,0,0,0,0,0,0,-0.0546,-0.0576,-0.0509,-0.0506,-0.0505,-0.0475,-0.0474,-0.0474,-0.0476,-0.0477,-0.0478,-0.0479,-0.0445,-0.0443,-0.044,-0.0412,0,0,-0.0434,-0.0433,0,0,0,0,0,0,0,0,-0.0548,-0.0544,-0.0507,-0.0506,-0.0505,-0.0481,-0.0486,-0.0453,-0.0476,-0.0487,-0.0478,-0.0479,-0.0455,-0.0452,-0.0444,-0.041,-0.0409,-0.0434,-0.0433,-0.0432,-0.0431,0,0,0,0,0,0,0,-0.055,-0.0545,-0.0496,-0.0506,-0.0505,-0.0506,-0.0502,-0.048,-0.0467,-0.0486,-0.0486,-0.0482,-0.0455,-0.0446,-0.0444,-0.0408,-0.0434,-0.0432,-0.0431,-0.043,-0.035,-0.0349,0,0,0,0,0,0,-0.0553,-0.0547,-0.0497,-0.0495,-0.0529,-0.0504,-0.05,-0.0488,-0.0468,-0.0465,-0.0482,-0.0483,-0.045,-0.0446,-0.0442,-0.0408,-0.0432,-0.043,-0.0429,-0.0351,-0.035,-0.0349,0,0,0,0,0,0,-0.0555,-0.0549,-0.0498,-0.0521,-0.0514,-0.0502,-0.0488,-0.0487,-0.0478,-0.0464,-0.0462,-0.0475,-0.045,-0.0445,-0.042,-0.0407,-0.0429,-0.0427,-0.0352,-0.0351,-0.0349,-0.0338,0,0,0,0,0,0,-0.0557,-0.0549,-0.0538,-0.0521,-0.0513,-0.0475,-0.0487,-0.0485,-0.0474,-0.0475,-0.0457,-0.0455,-0.045,-0.0423,-0.0418,-0.0404,-0.0425,-0.0353,-0.0351,-0.035,-0.034,-0.0337,-0.0334,0,0,0,0,0,-0.0559,-0.0536,-0.0537,-0.0531,-0.0499,-0.0475,-0.0471,-0.0465,-0.0473,-0.0462,-0.0453,-0.0456,-0.0409,-0.042,-0.0414,-0.04,-0.0354,-0.0352,-0.035,-0.0341,-0.0338,-0.0334,0,0,0,0,0,0,-0.0553,-0.0534,-0.0535,-0.0506,-0.0492,-0.0475,-0.0461,-0.0462,-0.0445,-0.0447,-0.0441,-0.0437,-0.0411,-0.0403,-0.0416,-0.0372,-0.0383,-0.0379,-0.0378,-0.0374,-0.0372,-0.0374,-0.0423,0,0,0,0,0,-0.0548,-0.0529,-0.0514,-0.049,-0.0483,-0.0473,-0.0462,-0.046,-0.0445,-0.0439,-0.0429,-0.0415,-0.0397,-0.0385,-0.0368,-0.0339,-0.0335,-0.0327,-0.0324,-0.0322,-0.0319,-0.0303,-0.0299,-0.0343,-0.0343,-0.0343,0,0,-0.0537,-0.0525,-0.0514,-0.0488,-0.0477,-0.0459,-0.0468,-0.0448,-0.0434,-0.0436,-0.0411,-0.0403,-0.0387,-0.036,-0.0347,-0.0352,-0.0306,-0.0319,-0.0317,-0.0316,-0.0301,-0.0296,-0.0293,-0.0341,-0.0342,-0.0342,0,0,-0.0509,-0.0498,-0.0477,-0.0465,-0.0448,-0.0442,-0.0437,-0.042,-0.0415,-0.039,-0.0391,-0.0375,-0.0345,-0.0333,-0.0323,-0.0292,-0.0293,-0.0286,-0.0272,-0.0257,-0.0253,-0.025,-0.0239,-0.0235,-0.0284,-0.0284,-0.0284,0,-0.0499,-0.047,-0.0466,-0.0445,-0.0434,-0.0435,-0.0414,-0.0403,-0.0382,-0.0374,-0.038,-0.0342,-0.0331,-0.0301,-0.0294,-0.0286,-0.028,-0.0288,-0.0254,-0.0251,-0.0248,-0.0237,-0.0233,-0.0283,-0.0283,-0.0283,-0.0283,0,-0.0458,-0.0439,-0.0424,-0.0403,-0.039,-0.0369,-0.0361,-0.0349,-0.0348,-0.0341,-0.0316,-0.0303,-0.0284,-0.0277,-0.0275,-0.0246,-0.025,-0.0255,-0.0266,-0.0243,-0.0233,-0.0228,-0.0282,-0.0282,-0.0282,-0.0283,0,0,-0.0424,-0.0401,-0.0395,-0.0386,-0.0368,-0.0353,-0.0333,-0.0313,-0.0303,-0.0288,-0.0271,-0.0246,-0.025,-0.0239,-0.0237,-0.0223,-0.0199,-0.023,-0.023,-0.0224,-0.0167,-0.0163,-0.0158,-0.02,-0.02,-0.0199,-0.0168,0,-0.0394,-0.0357,-0.0352,-0.032,-0.0302,-0.0303,-0.0286,-0.0273,-0.0266,-0.025,-0.0243,-0.0225,-0.0233,-0.0226,-0.0213,-0.0205,-0.0187,-0.0207,-0.0184,-0.0184,-0.0188,-0.0153,-0.0148,-0.012,-0.0164,-0.0163,-0.0163,0,-0.0353,-0.0337,-0.0303,-0.0288,-0.028,-0.0264,-0.0246,-0.0231,-0.0217,-0.0213,-0.0201,-0.02,-0.0179,-0.0192,-0.0163,-0.0177,-0.0167,-0.0162,-0.0161,-0.0158,-0.0171,-0.0149,-0.0111,-0.0106,-0.0157,-0.0157,-0.0158,0,-0.0331,-0.0301,-0.0277,-0.0269,-0.0251,-0.0239,-0.0231,-0.0218,-0.0207,-0.0191,-0.0184,-0.0167,-0.0157,-0.0144,-0.0139,-0.0148,-0.0111,-0.0122,-0.0107,-0.0107,-0.0099,-0.0099,-0.0058,-0.0093,-0.0094,-0.0094,-0.0094,0,-0.0297,-0.0276,-0.0267,-0.0252,-0.0229,-0.0224,-0.0201,-0.0194,-0.0182,-0.0165,-0.0166,-0.0151,-0.0145,-0.0129,-0.0125,-0.0102,-0.0098,-0.0095,-0.0094,-0.0094,-0.0095,-0.0088,-0.0089,-0.0092,-0.0093,-0.0093,-0.0093,0,-0.0269,-0.0262,-0.0235,-0.022,-0.0216,-0.0199,-0.0186,-0.0172,-0.0166,-0.0146,-0.0141,-0.0131,-0.0113,-0.0106,-0.0084,-0.0081,-0.0054,-0.0055,-0.0059,-0.0059,-0.0044,-0.0045,0.0004,0.001,-0.003,-0.0029,-0.0029,0,-0.0247,-0.0231,-0.0214,-0.0203,-0.0195,-0.0177,-0.0166,-0.0161,-0.015,-0.0132,-0.012,-0.0102,-0.0087,-0.0057,-0.0048,-0.0031,-0.0032,-0.0016,-0.0029,-0.003,-0.0031,-0.0032,-0.003,-0.0013,-0.0013,-0.0012,-0.0012,0,-0.021,-0.0207,-0.0191,-0.0173,-0.016,-0.0146,-0.0133,-0.0124,-0.0117,-0.0104,-0.0085,-0.0073,-0.005,-0.0032,-0.0015,-0.0007,-0.0008,-0.0008,-0.0004,-0.0004,-0.0006,-0.0005,-0.0052,-0.0009,-0.0009,-0.001,-0.001,-0.001,-0.0184,-0.017,-0.0156,-0.0138,-0.0127,-0.0115,-0.01,-0.0093,-0.0077,-0.0057,-0.0056,-0.0035,-0.0022,0.0001,0.001,0.0025,0.0021,0.0027,0.0029,0.0031,0.0032,-0.0009,0.0028,0.0028,0.0028,0.0028,0.0028,0,-0.0146,-0.0138,-0.0121,-0.0102,-0.0088,-0.0091,-0.0076,-0.0064,-0.0046,-0.0034,-0.0019,0.0003,0.002,0.003,0.0047,0.0058,0.0058,0.0063,0.0062,0.0064,0.0035,0.0029,0.0063,0.0062,0.0062,0.0062,0.0062,0.0062,-0.0125,-0.0101,-0.0097,-0.0068,-0.006,-0.004,-0.0031,-0.002,-0.001,0.0015,0.0029,0.0035,0.0047,0.0065,0.0081,0.0083,0.0089,0.0095,0.0097,0.0069,0.0066,0.0063,0.0058,0.0096,0.0096,0.0124,0.0125,0.0125]}]]